METEOR 2-5 DEB, 45509

Orbit data source: Space-Track

METEOR 2-5 DEB, 45509 is space debris in LEO originally from a launch on Wed, 31 Oct 1979 UTC launched from the Plesetsk Missile And Space Complex (PKMTR). Debris objects in space refer to the collection of defunct objects orbiting the Earth. Examples of debris include non-operational satellites, rocket bodies, and fragments generated from explosions, collisions, or faulty payload assembly.

Loading next visibility...
Identifier
45509, 1979-095CR
Orbit
LEO
Country
Flag of CISCIS
Related business
Manufacturer
Unknown
Mission
Spacecraft
Bus & Motor
Unknown
Mass
Unknown
Launch date (UTC)
1979-10-31 (47 years ago)
Launch vehicle
Unknown
Launch site
Plesetsk Missile And Space Complex (PKMTR)
Object type
Payload
Rocket body
Debris
Shape & HBR
Unknown shape, 0.1 m
Radar Cross Section
Small (<0.1 m²)

Expand to show TLE details & history
Last TLE update: 4 days ago

TLE from 4 days ago
0 METEOR 2-5 DEB
1 45509U 79095CR  26169.60697236  .00005998  00000-0  17388-2 0  9996
2 45509  81.1886 116.0318 0003587 116.9902  62.1486 14.44338143645522
Epoch: 2026-06-18T14:34Z
TLE epoch observation values (Epoch: 2026-06-18T14:34:02.411Z)
Latitude
0.70197°
Longitude
170.56564°
Altitude
745.864 km
Speed
7.482 km/s
True Right ascension
19h 43m 41s
True Declination
0° 41' 52"
Sunlit
Object was in full shadow at epoch
Visualization orbit readout
Latitude
Unknown
Longitude
Unknown
Altitude
Unknown
Speed
Unknown
Apparent Right ascension
Unknown
Apparent Declination
Unknown
Sunlit
N/A
Visualization observer readout
Local Sidereal Time
21:43:19
Azimuth
Unknown
Elevation
Unknown
Doppler factor
Unknown
Orbital elements
Apogee altitude
743.886 km
Perigee altitude
738.778 km
Semi-major axis
7,119.469 km
Eccentricity
0.00036
Inclination
81.1886°
RAAN
116.0318°
Arg. of periapsis
116.9902°
True anomaly
62.18495°
Mean anomaly
62.1486°
Eccentric anomaly
62.16677°
Mean motion
3.61303 °/min
Orbital period
99.64 mins
BSTAR
0.0017388
Loading maneuver chart data...
Computing Atmospheric mass density...

Documentation

Showing up to 5 results
|